Simultaneous Nadir Overpasses (SNOs) Predictions

Prediction of SNOs between GOES-16 and TERRA Satellite Orbit:

Table of predicted SNOs for the next 14.0 days since TLE Epoch: 9/23/2023
Index Date Time (GOES-16) GOES-16 Lat,Lon TERRA Lat,Lon Distance(km) Time Diff (sec)
1 09/24/2023 03:02:11 0.06, -75.21 0.12, -74.91 34.65 80
2 09/26/2023 02:45:43 0.05, -75.22 0.93, -70.92 487.70 80
3 09/26/2023 15:03:11 -0.05, -75.23 0.07, -75.82 67.09 80
4 09/28/2023 14:49:22 -0.05, -75.25 -0.78, -71.85 387.28 80
5 09/29/2023 03:09:40 0.05, -75.25 -0.28, -76.78 174.15 80
6 10/01/2023 02:50:31 0.05, -75.27 0.60, -72.80 281.30 80
7 10/01/2023 15:10:39 -0.05, -75.29 0.44, -77.69 273.02 80
8 10/03/2023 14:56:49 -0.05, -75.32 -0.41, -73.71 183.21 80
9 10/04/2023 03:17:07 0.05, -75.32 -0.64, -78.64 377.72 80
10 10/06/2023 02:57:56 0.04, -75.35 0.18, -74.65 79.27 80
11 10/06/2023 15:18:04 -0.04, -75.37 0.85, -79.55 474.73 80
